Temp
64 64 64 64 65 64 66 69 72 74 72 72 70 71 71 70 69 69 69 69 69 69 69 68 67 65 65 65 64 65 66 66
62 61 62 61 62 62 62 62 65 71 73 70 67 66 69 68 69 70 69 69 68 69 68 68 66 66 65 65 64 62 62 64
59 60 59 58 58 59 60 61 63 66 74 75 74 72 69 70 69 69 70 69 68 69 68 67 66 65 65 65 64 62 62 63
55 55 56 57 57 56 58 60 60 62 65 74 74 69 68 66 66 66 68 70 69 69 68 67 65 65 65 65 65 65 60 62
53 52 53 54 54 55 56 56 58 61 64 69 71 69 67 69 71 70 67 69 68 69 68 67 66 66 65 65 66 65 64 60
49 50 51 53 53 52 53 53 55 58 61 64 70 70 73 74 73 71 68 67 69 68 67 67 67 66 65 65 65 64 63 62
48 49 50 51 52 51 49 49 51 54 57 60 66 70 71 70 71 69 67 66 66 66 66 66 66 65 65 67 64 64 63 62
46 46 46 47 46 46 46 46 47 51 53 58 65 67 69 70 70 70 66 64 63 65 65 65 65 65 66 67 64 63 63 62
45 45 45 44 42 42 43 43 44 49 51 54 65 67 66 69 70 71 68 65 65 66 64 66 66 65 66 67 67 65 62 61
41 43 43 42 39 40 40 41 44 47 50 53 67 67 65 65 68 70 67 66 65 64 64 65 65 64 65 65 62 63 65 62
40 41 40 41 39 39 40 41 42 45 48 51 61 65 65 65 65 67 67 65 65 62 63 64 63 64 64 63 62 64 60 60
40 39 39 39 38 38 38 39 41 43 45 49 53 61 63 62 62 63 63 63 62 62 63 62 62 63 65 63 65 59 59 59
38 38 37 37 36 36 37 38 39 42 44 47 56 60 60 60 60 60 61 61 62 62 62 61 61 61 62 60 59 59 59 60
36 36 35 35 35 35 36 37 38 41 43 44 47 48 57 60 59 59 60 59 60 61 60 60 59 58 58 58 60 61 62 63
34 34 34 33 34 34 34 35 37 39 41 41 40 42 44 49 60 59 59 59 59 59 60 59 59 59 59 60 59 61 59 56
32 31 32 33 32 32 33 34 35 37 39 39 38 39 40 41 43 48 57 59 56 58 55 50 50 51 48 55 60 58 53 48
31 31 31 31 31 30 31 32 33 35 36 36 38 38 37 37 37 39 40 41 42 42 41 41 41 41 38 39 47 50 49 46
29 29 30 30 30 30 29 30 32 32 33 34 35 36 36 35 35 34 34 35 36 36 36 37 36 37 37 38 39 43 41 41
28 29 29 30 29 30 31 30 29 29 30 31 32 33 34 34 34 32 32 33 32 33 34 35 35 36 36 36 36 37 36 36
MSLP
1008.37 1008.32 1008.31 1008.03 1007.60 1007.34 1006.84 1006.29 1006.14 1006.01 1006.27 1006.71 1007.03 1007.44 1007.78 1008.12 1008.32 1008.62 1008.90 1009.42 1009.80 1010.27 1010.67 1011.27 1011.86 1012.62 1013.24 1013.73 1014.21 1014.62 1014.96 1015.35
1008.77 1008.82 1008.70 1008.41 1007.98 1007.44 1007.13 1006.65 1006.17 1005.69 1005.47 1005.67 1006.13 1006.32 1006.68 1007.25 1007.73 1007.88 1008.03 1008.48 1009.27 1009.66 1009.95 1010.63 1011.38 1011.88 1012.64 1013.21 1013.87 1014.38 1014.81 1015.24
1008.77 1008.96 1008.93 1008.84 1008.49 1007.97 1007.46 1006.87 1006.25 1005.77 1004.76 1004.42 1004.51 1004.90 1005.63 1006.04 1006.56 1007.24 1007.37 1007.74 1008.33 1008.98 1009.17 1009.85 1010.70 1011.44 1012.21 1012.71 1013.29 1013.82 1014.36 1014.80
1009.59 1009.26 1009.12 1008.95 1008.72 1008.27 1007.73 1007.05 1006.54 1005.87 1005.30 1004.05 1004.06 1004.65 1005.17 1005.59 1005.88 1006.26 1006.47 1006.81 1007.19 1007.83 1008.47 1009.09 1009.97 1010.73 1011.39 1012.07 1012.69 1013.07 1013.76 1014.41
1010.43 1010.11 1009.72 1009.24 1008.65 1008.50 1007.97 1007.31 1006.61 1005.78 1005.11 1003.93 1003.24 1003.18 1003.47 1003.67 1004.02 1004.57 1005.12 1005.79 1006.66 1007.04 1007.61 1008.25 1009.13 1009.82 1010.59 1011.33 1012.01 1012.51 1013.03 1013.77
1011.39 1011.07 1010.57 1009.82 1009.20 1008.57 1008.03 1007.46 1006.68 1005.80 1004.88 1003.95 1002.65 1002.45 1002.45 1002.68 1003.18 1003.59 1004.23 1004.82 1005.44 1006.32 1006.94 1007.66 1008.34 1008.80 1009.82 1010.60 1011.43 1011.96 1012.47 1013.06
1011.84 1011.55 1011.03 1010.40 1009.66 1009.04 1008.55 1007.61 1006.57 1005.68 1004.59 1003.36 1002.15 1001.43 1001.75 1002.10 1002.44 1002.73 1003.23 1003.98 1004.79 1005.43 1006.18 1006.88 1007.38 1007.98 1008.90 1009.75 1010.69 1011.22 1011.84 1012.43
1012.03 1011.71 1011.31 1010.92 1010.08 1009.23 1008.79 1007.88 1006.52 1005.50 1004.17 1002.87 1001.48 1000.70 1000.90 1001.29 1001.76 1001.98 1002.28 1003.11 1003.78 1004.60 1005.14 1005.81 1006.07 1007.07 1008.05 1009.18 1009.85 1010.58 1011.29 1011.84
1012.55 1012.36 1012.05 1011.71 1010.71 1009.57 1009.00 1007.83 1006.49 1005.19 1003.78 1002.17 1000.47 999.93 1000.30 1000.69 1001.11 1001.42 1001.83 1002.34 1002.66 1003.70 1004.56 1005.12 1005.48 1006.32 1007.55 1008.52 1009.15 1009.75 1010.62 1011.24
1013.47 1012.83 1012.40 1011.84 1010.84 1009.86 1009.23 1008.05 1006.49 1005.06 1003.49 1001.47 999.23 999.24 999.66 1000.13 1000.49 1000.90 1001.46 1002.01 1002.63 1003.33 1004.12 1004.59 1005.19 1006.12 1007.16 1008.12 1008.57 1009.06 1009.84 1010.44
1013.60 1013.13 1012.83 1012.07 1010.96 1010.07 1009.21 1008.00 1006.82 1005.17 1003.21 1000.90 999.25 998.64 999.26 999.77 1000.29 1000.42 1001.00 1001.49 1002.12 1002.93 1003.49 1004.17 1004.68 1006.08 1006.99 1007.66 1008.18 1008.73 1009.44 1009.93
1013.92 1013.64 1013.04 1012.00 1011.18 1010.38 1009.21 1007.81 1006.31 1004.59 1002.70 1001.47 999.60 999.08 999.37 999.80 1000.10 1000.36 1000.86 1001.38 1001.96 1002.55 1003.17 1003.87 1004.42 1005.93 1006.66 1007.32 1007.79 1008.44 1008.95 1009.52
1014.47 1014.02 1013.39 1012.33 1011.69 1010.65 1009.70 1008.38 1006.78 1005.30 1004.05 1001.97 1000.14 1000.07 999.99 999.70 1000.08 1000.43 1000.82 1001.11 1001.74 1002.35 1002.87 1003.54 1004.20 1005.83 1006.74 1007.30 1007.84 1008.34 1008.71 1009.24
1015.20 1014.62 1013.80 1013.15 1012.31 1011.48 1010.28 1008.97 1007.29 1005.51 1003.85 1002.87 1002.06 1001.76 1000.72 1000.46 1000.31 1000.49 1000.82 1001.25 1001.46 1002.12 1002.90 1003.61 1004.42 1005.52 1006.61 1007.17 1007.73 1008.11 1008.43 1008.85
1016.19 1015.50 1014.58 1013.89 1013.14 1012.00 1010.72 1009.52 1008.51 1007.13 1005.80 1004.73 1004.07 1003.24 1002.50 1001.59 1001.28 1001.04 1000.90 1001.47 1001.75 1002.26 1003.08 1004.15 1003.43 1005.45 1006.71 1007.20 1007.69 1007.98 1008.48 1009.08
1016.83 1016.22 1015.40 1014.70 1013.77 1012.67 1011.54 1010.38 1009.25 1007.97 1006.64 1005.71 1005.20 1004.52 1003.90 1003.15 1002.62 1002.10 1001.41 1001.47 1001.96 1002.82 1003.49 1004.17 1003.87 1006.77 1007.69 1007.63 1007.63 1008.01 1008.65 1009.45
1017.33 1016.98 1016.33 1015.50 1014.69 1013.91 1012.84 1011.64 1010.53 1009.48 1008.27 1007.26 1006.48 1005.89 1005.20 1004.99 1004.56 1004.09 1004.11 1002.72 1003.31 1003.36 1004.66 1004.63 1006.54 1008.39 1008.63 1008.34 1008.15 1008.38 1009.06 1009.65
1018.22 1017.85 1017.33 1016.59 1015.83 1014.98 1013.93 1013.10 1012.02 1010.85 1009.88 1009.01 1008.13 1007.38 1006.80 1006.61 1006.44 1006.19 1006.58 1004.99 1005.10 1006.03 1005.99 1006.57 1008.56 1009.29 1009.39 1008.94 1008.90 1009.30 1009.97 1010.50
1019.00 1018.60 1018.04 1017.38 1016.74 1015.91 1015.27 1014.26 1013.21 1012.32 1011.49 1010.69 1009.97 1009.17 1008.75 1008.34 1007.88 1007.94 1007.51 1007.79 1008.16 1007.68 1007.94 1008.61 1009.27 1010.36 1010.30 1010.09 1010.39 1010.75 1011.15 1011.75
Wind_Speed
9 11 11 12 12 11 11 11 11 13 12 11 8 10 10 10 11 11 13 11 14 12 9 9 9 7 7 7 7 7 6 7
7 9 11 13 12 14 13 12 11 10 11 11 11 12 13 11 11 15 15 14 16 15 9 10 10 10 9 9 6 8 5 6
12 12 12 12 13 13 15 14 12 10 11 12 12 12 12 11 11 12 16 17 16 15 13 11 11 8 10 11 9 4 4 8
14 16 16 14 13 15 15 15 15 12 14 11 10 8 7 8 10 10 14 18 17 17 16 12 12 10 9 11 11 12 6 6
12 15 16 16 16 15 15 17 17 14 13 14 18 13 14 12 15 13 13 18 16 17 17 15 14 12 11 10 11 10 8 6
12 13 14 14 14 16 17 18 17 17 15 15 15 18 14 12 13 17 15 15 17 16 15 16 15 11 11 12 11 11 9 7
14 15 15 14 13 15 17 19 18 18 16 15 19 21 18 14 15 13 11 11 12 16 16 15 14 12 13 13 11 13 10 8
16 18 18 18 18 17 16 18 19 19 18 16 19 19 20 19 17 13 13 10 9 16 17 16 14 14 14 13 11 11 10 10
17 17 17 18 17 16 18 18 19 19 17 17 16 16 10 13 15 12 11 10 11 14 14 14 14 14 13 13 11 10 10 8
16 16 16 18 16 17 17 18 19 18 17 15 13 12 13 11 14 13 10 10 8 12 14 14 14 14 13 14 8 10 12 10
17 17 17 16 15 16 17 16 16 17 16 14 8 8 10 11 11 14 14 12 12 13 14 14 14 14 14 11 8 10 9 7
17 17 17 16 16 16 17 17 19 17 17 16 11 4 7 8 9 9 10 11 12 14 13 12 13 11 11 9 10 7 7 6
17 18 18 17 17 17 17 16 17 16 15 15 12 0 6 8 7 9 10 11 12 12 14 12 12 10 9 9 8 6 7 8
17 18 16 16 16 16 16 16 18 18 18 14 13 12 6 3 5 7 8 9 11 12 12 12 12 10 9 7 7 7 8 8
15 16 15 15 15 16 17 16 16 15 14 13 13 14 13 12 4 7 11 9 10 11 12 11 14 10 7 7 7 7 6 3
14 16 16 15 16 16 16 16 17 16 15 14 14 13 13 14 14 12 3 10 7 11 12 11 16 8 5 1 7 6 7 6
14 15 17 17 16 16 15 16 17 16 15 14 13 13 15 15 16 16 13 13 14 10 13 14 14 7 11 6 2 7 8 7
13 14 14 15 16 15 15 15 15 16 16 16 15 14 14 15 16 17 12 16 14 14 15 17 14 11 17 16 11 8 8 7
11 12 13 14 14 15 14 14 15 16 17 17 17 16 14 13 15 15 19 14 13 13 16 15 14 12 18 18 16 11 11 10
Wind_Direction
2 359 358 348 345 341 312 292 259 233 215 212 203 203 208 207 206 206 195 201 194 193 187 169 170 177 177 178 182 191 197 203
7 5 1 353 353 348 337 324 305 262 221 207 202 208 209 210 212 208 199 193 198 195 181 171 175 186 187 180 173 183 180 179
349 350 350 354 344 343 335 328 317 296 241 221 211 207 221 215 208 209 202 197 193 198 184 179 179 178 184 185 184 166 180 174
347 342 344 341 342 340 331 324 318 301 288 237 219 214 216 203 206 194 203 199 191 190 188 179 177 181 188 182 186 187 173 185
347 342 338 337 337 333 329 324 316 303 288 255 221 209 208 211 206 202 198 199 196 191 188 182 182 184 181 185 191 189 176 192
344 340 332 329 333 333 329 323 312 306 290 269 231 219 220 211 215 207 199 191 191 191 189 185 183 177 183 180 185 187 191 185
345 342 337 332 336 337 329 321 315 307 297 280 243 224 220 215 210 199 193 190 193 187 184 188 186 174 181 183 182 189 188 193
349 347 342 335 336 342 326 320 313 307 301 283 252 224 220 220 215 206 188 183 182 196 186 185 177 173 177 183 173 183 189 194
350 345 338 329 331 339 325 320 314 310 302 294 252 218 214 217 214 206 199 195 189 192 190 185 172 170 176 183 185 182 185 196
342 343 340 332 332 336 324 318 315 310 302 298 245 203 200 204 207 203 199 190 183 177 182 177 168 168 175 181 175 177 192 186
347 347 339 338 339 331 322 321 315 310 311 323 302 175 179 190 194 193 193 188 178 173 176 174 165 167 172 169 170 183 180 182
346 342 342 346 343 334 332 332 330 332 336 319 333 170 167 173 193 188 182 168 167 167 168 157 143 165 172 175 185 157 175 181
350 345 345 351 343 338 337 335 334 340 339 327 358 93 168 166 167 165 169 165 167 160 154 143 137 154 164 163 157 163 182 207
352 348 350 347 344 339 340 345 343 342 350 358 13 7 350 170 163 146 143 159 145 149 146 150 143 138 151 150 167 185 205 225
351 350 350 348 344 343 346 348 351 349 356 13 16 13 6 4 176 180 157 157 152 148 149 152 122 129 152 164 177 190 193 137
356 353 351 350 351 350 352 352 355 355 5 14 18 22 20 22 21 12 195 145 122 134 115 89 78 74 43 154 181 168 125 108
0 355 357 357 356 353 353 355 1 2 14 16 16 30 36 32 31 26 22 71 71 69 69 75 68 53 355 296 240 118 114 114
4 358 355 359 358 356 359 358 1 13 17 19 21 26 38 47 39 41 26 44 55 62 63 66 67 49 36 48 64 89 87 78
11 6 3 2 359 5 5 10 16 17 19 23 22 25 34 42 58 47 41 36 40 60 63 63 64 50 50 56 59 70 72 63